This is the latest recevied weather packets stored in our database for station/object KT2UU-13. If no packets are shown the sender has not sent any weather packets the latest 10 day(s).
| Time | Temp. | Humidity | Pressure | Rain* | Wind** | Luminosity | Snow |
|---|---|---|---|---|---|---|---|
| 1778216764 | 11.67° C | 94% | 1016.8 hPa | 0 mm | - | - | - |
| 1778216463 | 12.22° C | 94% | 1016.8 hPa | 0 mm | - | - | - |
| 1778216158 | 12.22° C | 94% | 1017 hPa | 0 mm | - | - | - |
| 1778215856 | 12.22° C | 94% | 1017 hPa | 0 mm | - | - | - |
| 1778215553 | 12.78° C | 93% | 1017 hPa | 0 mm | - | - | - |
| 1778215249 | 12.78° C | 91% | 1016.9 hPa | 0 mm | - | - | - |
| 1778214946 | 12.78° C | 91% | 1016.9 hPa | 0 mm | - | - | - |
| 1778214644 | 12.78° C | 95% | 1016.7 hPa | 0 mm | - | - | - |
| 1778214340 | 12.78° C | 95% | 1016.6 hPa | 0 mm | - | - | - |
| 1778214038 | 12.78° C | 96% | 1016.6 hPa | 0 mm | - | - | - |
| 1778213734 | 12.78° C | 95% | 1016.8 hPa | 0 mm | - | - | - |
| 1778213430 | 12.78° C | 94% | 1016.8 hPa | 0 mm | - | - | - |
| 1778213127 | 12.78° C | 94% | 1016.9 hPa | 0 mm | - | - | - |
| 1778212825 | 12.78° C | 95% | 1016.7 hPa | 0 mm | - | - | - |
| 1778212521 | 12.22° C | 96% | 1016.6 hPa | 0 mm | - | - | - |
| 1778212219 | 12.22° C | 98% | 1016.6 hPa | 0 mm | - | - | - |
| 1778211916 | 12.22° C | 99% | 1016.6 hPa | 0 mm | - | - | - |
| 1778211612 | 12.78° C | 99% | 1016.8 hPa | 0 mm | - | - | - |
| 1778211310 | 12.78° C | 99% | 1016.7 hPa | 0 mm | - | - | - |
| 1778211008 | 12.78° C | 99% | 1016.7 hPa | 0 mm | - | - | - |
| 1778210705 | 12.78° C | 99% | 1016.8 hPa | 0 mm | - | - | - |
| 1778210402 | 12.78° C | 99% | 1016.7 hPa | 0 mm | - | - | - |
| 1778210100 | 12.78° C | 99% | 1016.6 hPa | 0 mm | - | - | - |
| 1778209794 | 12.78° C | 99% | 1016.5 hPa | 0 mm | - | - | - |
| 1778209492 | 12.78° C | 99% | 1016.6 hPa | 0 mm | - | - | - |
* Rain latest hour (hover to see other rain measurements)
** Current wind speed in m/s (hover to see current wind gust speed)